Terminal Aerodrome Forecast
Issued by NWS Omaha/Valley, NE

Home | Current Version | Previous Version | Text Only | Print | Product List | Glossary On
Versions: 1 2 3 4 5 6 7 8 9 10 11 12 13 14 15 16 17 18 19 20 21 22 23 24 25 26 27 28 29 30 31 32 33 34 35 36 37 38 39 40 41 42 43 44 45 46 47
000
FTUS43 KOAX 192235 AAA
TAFLNK
TAF AMD
KLNK 192235Z 1923/2018 34014G24KT P6SM BKN050
     FM200100 32013KT P6SM SCT070
     FM200700 32012KT P6SM SCT040
     FM201500 31020G30KT P6SM SCT100=

USA.gov is the U.S. government's official web portal to all federal, state and local government web resources and services.